Time,TemperatureF,DewpointF,PressureIn,WindDirection,WindDirectionDegrees,WindSpeedMPH,WindSpeedGustMPH,Humidity,HourlyPrecipIn,Conditions,Clouds,dailyrainin,SoftwareType,DateUTC
2013-02-19 06:32:00,39.0,34.0,29.80,SW,226,1.0,8.0,83,-99.99,,,-99.99,,2013-02-19 11:32:00,
2013-02-19 06:42:00,39.0,34.0,29.80,SW,226,1.0,8.0,83,-99.99,,,-99.99,,2013-02-19 11:42:00,
2013-02-19 06:52:00,39.0,35.0,29.79,West,275,0.0,7.0,85,-99.99,,,-99.99,,2013-02-19 11:52:00,
2013-02-19 07:02:00,38.0,34.0,29.76,SSE,163,3.0,10.0,86,-99.99,,,-99.99,,2013-02-19 12:02:00,
2013-02-19 07:12:00,38.0,34.0,29.76,SSE,163,3.0,10.0,86,-99.99,,,-99.99,,2013-02-19 12:12:00,
2013-02-19 07:22:00,38.0,34.0,29.76,SE,140,2.0,6.0,87,-99.99,,,-99.99,,2013-02-19 12:22:00,
2013-02-19 07:32:00,38.0,35.0,29.77,SW,235,1.0,6.0,88,0.04,,,-99.99,,2013-02-19 12:32:00,
2013-02-19 07:42:00,38.0,35.0,29.77,SW,235,1.0,6.0,88,0.04,,,-99.99,,2013-02-19 12:42:00,
2013-02-19 07:52:00,37.0,34.0,29.77,NNE,30,0.0,7.0,88,0.02,,,-99.99,,2013-02-19 12:52:00,
2013-02-19 08:02:00,37.0,34.0,29.76,South,187,2.0,7.0,89,0.01,,,-99.99,,2013-02-19 13:02:00,
2013-02-19 08:11:00,37.0,34.0,29.76,South,187,2.0,7.0,89,0.01,,,-99.99,,2013-02-19 13:11:00,
2013-02-19 08:22:00,37.0,34.0,29.76,East,87,2.0,7.0,89,0.00,,,-99.99,,2013-02-19 13:22:00,
2013-02-19 08:32:00,37.0,34.0,29.75,South,173,4.0,13.0,88,0.01,,,-99.99,,2013-02-19 13:32:00,
2013-02-19 08:42:00,37.0,34.0,29.75,South,173,4.0,13.0,88,0.01,,,-99.99,,2013-02-19 13:42:00,
2013-02-19 08:52:00,38.0,35.0,29.75,West,267,4.0,10.0,88,0.01,,,-99.99,,2013-02-19 13:52:00,
2013-02-19 09:02:00,38.0,35.0,29.74,SE,141,4.0,10.0,88,0.02,,,-99.99,,2013-02-19 14:02:00,
2013-02-19 09:12:00,38.0,35.0,29.74,SE,141,4.0,10.0,88,0.02,,,-99.99,,2013-02-19 14:12:00,
2013-02-19 09:22:00,38.0,35.0,29.74,SE,133,2.0,12.0,88,0.03,,,-99.99,,2013-02-19 14:22:00,
2013-02-19 09:33:00,38.0,35.0,29.73,East,96,0.0,7.0,88,0.03,,,-99.99,,2013-02-19 14:33:00,
2013-02-19 09:42:00,38.0,35.0,29.73,East,96,0.0,7.0,88,0.03,,,-99.99,,2013-02-19 14:42:00,
2013-02-19 09:52:00,38.0,35.0,29.74,SE,130,0.0,12.0,89,0.03,,,-99.99,,2013-02-19 14:52:00,
2013-02-19 10:02:00,38.0,35.0,29.73,ENE,69,3.0,5.0,89,0.02,,,-99.99,,2013-02-19 15:02:00,
2013-02-19 10:11:00,38.0,35.0,29.73,ENE,69,3.0,5.0,89,0.02,,,-99.99,,2013-02-19 15:11:00,
2013-02-19 10:22:00,39.0,36.0,29.72,SSW,196,3.0,8.0,89,0.02,,,-99.99,,2013-02-19 15:22:00,
2013-02-19 10:32:00,39.0,36.0,29.72,South,175,1.0,9.0,88,0.01,,,-99.99,,2013-02-19 15:32:00,
2013-02-19 10:42:00,39.0,36.0,29.72,South,175,1.0,9.0,88,0.01,,,-99.99,,2013-02-19 15:42:00,
2013-02-19 10:52:00,40.0,37.0,29.72,South,181,2.0,12.0,88,0.01,,,-99.99,,2013-02-19 15:52:00,
2013-02-19 11:02:00,40.0,36.0,29.72,North,360,2.0,8.0,87,0.01,,,-99.99,,2013-02-19 16:02:00,
2013-02-19 11:11:00,40.0,36.0,29.72,North,360,2.0,8.0,87,0.01,,,-99.99,,2013-02-19 16:11:00,
2013-02-19 11:22:00,40.0,36.0,29.72,WSW,253,3.0,20.0,86,0.00,,,-99.99,,2013-02-19 16:22:00,
2013-02-19 11:32:00,40.0,36.0,29.71,WNW,303,3.0,13.0,86,0.00,,,-99.99,,2013-02-19 16:32:00,
2013-02-19 11:42:00,40.0,36.0,29.71,WNW,303,3.0,13.0,86,0.00,,,-99.99,,2013-02-19 16:42:00,
2013-02-19 11:52:00,40.0,36.0,29.71,SW,215,6.0,16.0,85,0.00,,,-99.99,,2013-02-19 16:52:00,
2013-02-19 12:01:00,41.0,37.0,29.70,WSW,251,7.0,19.0,84,0.00,,,-99.99,,2013-02-19 17:01:00,
2013-02-19 12:11:00,41.0,37.0,29.70,WSW,251,7.0,19.0,84,0.00,,,-99.99,,2013-02-19 17:11:00,
2013-02-19 12:21:00,41.0,37.0,29.68,WSW,250,8.0,18.0,84,0.00,,,-99.99,,2013-02-19 17:21:00,
2013-02-19 12:32:00,41.0,37.0,29.71,SW,234,12.0,21.0,84,0.00,,,-99.99,,2013-02-19 17:32:00,
2013-02-19 12:42:00,41.0,37.0,29.71,SW,234,12.0,21.0,84,0.00,,,-99.99,,2013-02-19 17:42:00,
2013-02-19 12:52:00,41.0,36.0,29.70,West,265,5.0,18.0,83,0.00,,,-99.99,,2013-02-19 17:52:00,
2013-02-19 13:02:00,41.0,36.0,29.68,SW,236,6.0,20.0,81,0.00,,,-99.99,,2013-02-19 18:02:00,
2013-02-19 13:11:00,41.0,36.0,29.68,SW,236,6.0,20.0,81,0.00,,,-99.99,,2013-02-19 18:11:00,
2013-02-19 13:21:00,42.0,37.0,29.68,West,269,7.0,14.0,81,0.00,,,-99.99,,2013-02-19 18:21:00,
2013-02-19 13:32:00,35.0,32.0,29.70,WNW,293,17.0,38.0,88,0.01,,,-99.99,,2013-02-19 18:32:00,
2013-02-19 13:42:00,35.0,32.0,29.70,WNW,293,17.0,38.0,88,0.01,,,-99.99,,2013-02-19 18:42:00,
2013-02-19 13:52:00,35.0,33.0,29.70,West,281,23.0,32.0,91,0.02,,,-99.99,,2013-02-19 18:52:00,
2013-02-19 14:01:00,35.0,32.0,29.72,WNW,286,19.0,26.0,90,0.02,,,-99.99,,2013-02-19 19:01:00,
2013-02-19 14:11:00,35.0,32.0,29.72,WNW,286,19.0,26.0,90,0.02,,,-99.99,,2013-02-19 19:11:00,
2013-02-19 14:21:00,35.0,32.0,29.71,WNW,282,14.0,24.0,90,0.02,,,-99.99,,2013-02-19 19:21:00,
2013-02-19 14:32:00,35.0,32.0,29.72,NW,305,9.0,16.0,90,0.01,,,-99.99,,2013-02-19 19:32:00,
2013-02-19 14:42:00,35.0,32.0,29.72,NW,305,9.0,16.0,90,0.01,,,-99.99,,2013-02-19 19:42:00,
2013-02-19 14:52:00,35.0,31.0,29.72,WNW,292,25.0,37.0,85,0.00,,,-99.99,,2013-02-19 19:52:00,
2013-02-19 15:02:00,34.0,29.0,29.74,West,277,18.0,29.0,81,0.00,,,-99.99,,2013-02-19 20:02:00,
2013-02-19 15:12:00,34.0,29.0,29.74,West,277,18.0,29.0,81,0.00,,,-99.99,,2013-02-19 20:12:00,
2013-02-19 15:22:00,35.0,29.0,29.74,WNW,295,13.0,25.0,80,0.00,,,-99.99,,2013-02-19 20:22:00,
2013-02-19 15:32:00,35.0,29.0,29.75,West,271,14.0,25.0,79,0.00,,,-99.99,,2013-02-19 20:32:00,
2013-02-19 15:42:00,35.0,29.0,29.75,West,271,14.0,25.0,79,0.00,,,-99.99,,2013-02-19 20:42:00,
2013-02-19 15:52:00,35.0,29.0,29.75,WNW,286,11.0,21.0,79,0.00,,,-99.99,,2013-02-19 20:52:00,
2013-02-19 16:02:00,35.0,29.0,29.72,WNW,300,9.0,20.0,80,0.00,,,-99.99,,2013-02-19 21:02:00,
2013-02-19 16:11:00,35.0,29.0,29.72,WNW,300,9.0,20.0,80,0.00,,,-99.99,,2013-02-19 21:11:00,
2013-02-19 16:21:00,36.0,29.0,29.72,West,275,9.0,18.0,77,0.00,,,-99.99,,2013-02-19 21:21:00,
2013-02-19 16:32:00,35.0,28.0,29.73,West,275,16.0,26.0,75,0.00,,,-99.99,,2013-02-19 21:32:00,
2013-02-19 16:42:00,35.0,28.0,29.73,West,275,16.0,26.0,75,0.00,,,-99.99,,2013-02-19 21:42:00,
2013-02-19 16:52:00,35.0,28.0,29.74,NW,308,11.0,22.0,74,0.00,,,-99.99,,2013-02-19 21:52:00,
2013-02-19 17:02:00,35.0,26.0,29.74,WNW,287,20.0,31.0,69,0.00,,,-99.99,,2013-02-19 22:02:00,
2013-02-19 17:11:00,35.0,26.0,29.74,WNW,287,20.0,31.0,69,0.00,,,-99.99,,2013-02-19 22:11:00,
2013-02-19 17:22:00,35.0,26.0,29.75,West,268,19.0,31.0,68,0.00,,,-99.99,,2013-02-19 22:22:00,
2013-02-19 17:32:00,34.0,25.0,29.77,West,272,17.0,25.0,69,0.00,,,-99.99,,2013-02-19 22:32:00,
2013-02-19 17:42:00,34.0,25.0,29.77,West,272,17.0,25.0,69,0.00,,,-99.99,,2013-02-19 22:42:00,
2013-02-19 17:52:00,34.0,25.0,29.78,West,273,11.0,25.0,69,0.00,,,-99.99,,2013-02-19 22:52:00,
2013-02-19 18:01:00,33.0,24.0,29.79,NW,317,15.0,26.0,68,0.00,,,-99.99,,2013-02-19 23:01:00,
2013-02-19 18:11:00,33.0,24.0,29.79,NW,317,15.0,26.0,68,0.00,,,-99.99,,2013-02-19 23:11:00,
2013-02-19 18:21:00,33.0,22.0,29.80,West,262,15.0,28.0,64,0.00,,,-99.99,,2013-02-19 23:21:00,
2013-02-19 18:32:00,32.0,21.0,29.81,WNW,284,14.0,30.0,63,0.00,,,-99.99,,2013-02-19 23:32:00,
2013-02-19 18:42:00,32.0,21.0,29.81,WNW,284,14.0,30.0,63,0.00,,,-99.99,,2013-02-19 23:42:00,
2013-02-19 18:52:00,32.0,22.0,29.82,WNW,294,16.0,23.0,65,0.00,,,-99.99,,2013-02-19 23:52:00,
2013-02-19 19:01:00,32.0,22.0,29.82,WNW,286,9.0,20.0,67,0.00,,,-99.99,,2013-02-20 00:01:00,
2013-02-19 19:11:00,32.0,22.0,29.82,WNW,286,9.0,20.0,67,0.00,,,-99.99,,2013-02-20 00:11:00,
2013-02-19 19:21:00,31.0,23.0,29.83,NW,313,14.0,26.0,71,0.00,,,-99.99,,2013-02-20 00:21:00,
2013-02-19 19:32:00,31.0,22.0,29.84,West,269,10.0,21.0,70,0.00,,,-99.99,,2013-02-20 00:32:00,
2013-02-19 19:42:00,31.0,22.0,29.84,West,269,10.0,21.0,70,0.00,,,-99.99,,2013-02-20 00:42:00,
2013-02-19 19:52:00,31.0,22.0,29.85,West,261,17.0,30.0,69,0.00,,,-99.99,,2013-02-20 00:52:00,
2013-02-19 20:02:00,30.0,21.0,29.85,West,263,15.0,29.0,70,0.00,,,-99.99,,2013-02-20 01:02:00,
2013-02-19 20:11:00,30.0,21.0,29.85,West,263,15.0,29.0,70,0.00,,,-99.99,,2013-02-20 01:11:00,
2013-02-19 20:22:00,30.0,22.0,29.86,West,271,12.0,32.0,71,0.00,,,-99.99,,2013-02-20 01:22:00,
2013-02-19 20:32:00,29.0,21.0,29.85,WNW,302,20.0,30.0,73,0.00,,,-99.99,,2013-02-20 01:32:00,
2013-02-19 20:42:00,29.0,21.0,29.85,WNW,302,20.0,30.0,73,0.00,,,-99.99,,2013-02-20 01:42:00,
2013-02-19 20:52:00,29.0,22.0,29.86,West,267,12.0,22.0,74,0.00,,,-99.99,,2013-02-20 01:52:00,
2013-02-19 21:02:00,28.0,21.0,29.87,NW,313,12.0,20.0,76,0.00,,,-99.99,,2013-02-20 02:02:00,
2013-02-19 21:11:00,28.0,21.0,29.87,NW,313,12.0,20.0,76,0.00,,,-99.99,,2013-02-20 02:11:00,
2013-02-19 21:22:00,27.0,22.0,29.87,WNW,289,12.0,23.0,81,0.00,,,-99.99,,2013-02-20 02:22:00,
2013-02-19 21:32:00,27.0,23.0,29.89,West,267,9.0,23.0,83,0.00,,,-99.99,,2013-02-20 02:32:00,
2013-02-19 21:42:00,27.0,23.0,29.89,West,267,9.0,23.0,83,0.00,,,-99.99,,2013-02-20 02:42:00,
2013-02-19 21:52:00,27.0,22.0,29.89,West,271,14.0,20.0,81,0.00,,,-99.99,,2013-02-20 02:52:00,
2013-02-19 22:02:00,27.0,21.0,29.88,WSW,257,13.0,30.0,79,0.00,,,-99.99,,2013-02-20 03:02:00,
2013-02-19 22:12:00,27.0,21.0,29.88,WSW,257,13.0,30.0,79,0.00,,,-99.99,,2013-02-20 03:12:00,
2013-02-19 22:22:00,25.0,21.0,29.90,NW,308,14.0,28.0,86,0.00,,,-99.99,,2013-02-20 03:22:00,
2013-02-19 22:32:00,25.0,22.0,29.91,West,265,10.0,19.0,88,0.00,,,-99.99,,2013-02-20 03:32:00,
2013-02-19 22:42:00,25.0,22.0,29.91,West,265,10.0,19.0,88,0.00,,,-99.99,,2013-02-20 03:42:00,
2013-02-19 22:52:00,25.0,21.0,29.91,WNW,290,16.0,29.0,85,0.00,,,-99.99,,2013-02-20 03:52:00,
2013-02-19 23:01:00,25.0,20.0,29.90,West,265,14.0,21.0,80,0.00,,,-99.99,,2013-02-20 04:01:00,
2013-02-19 23:11:00,25.0,20.0,29.90,West,265,14.0,21.0,80,0.00,,,-99.99,,2013-02-20 04:11:00,
2013-02-19 23:21:00,25.0,18.0,29.90,West,277,15.0,27.0,75,0.00,,,-99.99,,2013-02-20 04:21:00,
2013-02-19 23:32:00,24.0,17.0,29.91,West,273,13.0,23.0,75,0.00,,,-99.99,,2013-02-20 04:32:00,
2013-02-19 23:42:00,24.0,17.0,29.91,West,273,13.0,23.0,75,0.00,,,-99.99,,2013-02-20 04:42:00,
2013-02-19 23:52:00,24.0,17.0,29.91,West,261,11.0,27.0,75,0.00,,,-99.99,,2013-02-20 04:52:00,